Storm Lake, IA

10:29 AM CST on December 10, 2016 (GMT -0600)
Storm Lake Municipal

Weather History for KSLB - December, 2012

Change the Weather History Date:

Wednesday, December 12, 2012

  Actual Average Record
Temperature  
Mean Temperature 36 °F -  
Max Temperature 50 °F 34 °F 53 °F (1998)
Min Temperature 21 °F 18 °F -14 °F (2000)
Degree Days  
Heating Degree Days 30    
Moisture  
Dew Point 16 °F    
Average Humidity 47    
Maximum Humidity 80    
Minimum Humidity 26    
Precipitation  
Precipitation 0.00 in - - ()
Sea Level Pressure  
Sea Level Pressure 29.89 in    
Wind  
Wind Speed 17 mph (SSW)    
Max Wind Speed 31 mph    
Max Gust Speed 39 mph    
Visibility 10 miles    
Events      
Averages and records for this station are not official NWS values.
T = Trace of Precipitation, MM = Missing Value Source: NWS Daily Summary

Daily Weather History Graph

Daily Weather History Graph

Search for Another Location

Airport or City:

Trip Planner

Search our weather history database for the weather conditions in past years. The results will help you decide how hot, cold, wet, or windy it might be!

Date:

Astronomy

Dec. 12, 2012 Rise Set
Actual Time 7:42 AM CST 4:47 PM CST
Civil Twilight 7:10 AM CST 5:19 PM CST
Nautical Twilight 6:34 AM CST 5:55 PM CST
Astronomical Twilight 6:00 AM CST 6:29 PM CST
Moon 6:47 AM CST (12/12) 4:26 PM CST (12/12)
Length of Visible Light 10h 09m
Length of Day
9h 05m
Waning Crescent, 1% of the Moon is Illuminated
Dec 12
Waning Crescent
Dec 13
New
Dec 19
First Quarter
Dec 28
Full
Jan 4
Last Quarter

Hourly Weather History & Observations

Time (CST) Temp. Windchill Dew Point Humidity Pressure Visibility Wind Dir Wind Speed Gust Speed Precip Events Conditions
12:15 AM 24.8 °F 15.3 °F 17.6 °F 74% 29.93 in 10.0 mi South 9.2 mph - N/A   Clear
12:35 AM 23.0 °F 13.9 °F 15.8 °F 74% 29.93 in 10.0 mi South 8.1 mph - N/A   Clear
12:55 AM 28.4 °F 17.5 °F 17.6 °F 64% 29.92 in 10.0 mi SSW 13.8 mph - N/A   Clear
1:15 AM 28.4 °F 18.0 °F 17.6 °F 64% 29.92 in 10.0 mi SSW 12.7 mph - N/A   Clear
1:35 AM 28.4 °F 18.0 °F 17.6 °F 64% 29.92 in 10.0 mi SSW 12.7 mph - N/A   Clear
1:55 AM 23.0 °F 13.9 °F 15.8 °F 74% 29.92 in 10.0 mi South 8.1 mph - N/A   Clear
2:15 AM 21.2 °F 11.7 °F 15.8 °F 80% 29.92 in 10.0 mi South 8.1 mph - N/A   Clear
3:15 AM 23.0 °F 10.6 °F 17.6 °F 80% 29.92 in 10.0 mi South 13.8 mph - N/A   Clear
3:35 AM 26.6 °F 14.3 °F 17.6 °F 69% 29.91 in 10.0 mi SSW 16.1 mph - N/A   Clear
3:55 AM 28.4 °F 17.5 °F 17.6 °F 64% 29.91 in 10.0 mi South 13.8 mph - N/A   Clear
4:15 AM 26.6 °F 15.2 °F 17.6 °F 69% 29.90 in 10.0 mi South 13.8 mph - N/A   Clear
4:35 AM 26.6 °F 15.2 °F 17.6 °F 69% 29.90 in 10.0 mi South 13.8 mph - N/A   Clear
4:55 AM 26.6 °F 14.7 °F 17.6 °F 69% 29.89 in 10.0 mi South 15.0 mph - N/A   Clear
5:15 AM 26.6 °F 14.7 °F 17.6 °F 69% 29.89 in 10.0 mi South 15.0 mph - N/A   Clear
5:35 AM 26.6 °F 13.8 °F 17.6 °F 69% 29.89 in 10.0 mi South 17.3 mph 23.0 mph N/A   Clear
5:55 AM 28.4 °F 15.8 °F 17.6 °F 64% 29.89 in 10.0 mi South 18.4 mph - N/A   Clear
6:15 AM 28.4 °F 15.4 °F 17.6 °F 64% 29.89 in 10.0 mi SSW 19.6 mph - N/A   Clear
6:35 AM 28.4 °F 15.8 °F 17.6 °F 64% 29.90 in 10.0 mi SSW 18.4 mph - N/A   Partly Cloudy
6:55 AM 28.4 °F 15.8 °F 17.6 °F 64% 29.89 in 10.0 mi SSW 18.4 mph - N/A   Partly Cloudy
7:15 AM 28.4 °F 15.1 °F 17.6 °F 64% 29.89 in 10.0 mi SSW 20.7 mph - N/A   Clear
7:35 AM 28.4 °F 16.2 °F 17.6 °F 64% 29.89 in 10.0 mi South 17.3 mph - N/A   Clear
7:55 AM 28.4 °F 14.4 °F 17.6 °F 64% 29.89 in 10.0 mi South 23.0 mph - N/A   Clear
8:15 AM 30.2 °F 17.4 °F 17.6 °F 60% 29.89 in 10.0 mi SSW 20.7 mph 27.6 mph N/A   Clear
8:35 AM 30.2 °F 17.1 °F 17.6 °F 60% 29.89 in 10.0 mi SSW 21.9 mph 28.8 mph N/A   Clear
8:55 AM 32.0 °F 19.2 °F 17.6 °F 55% 29.89 in 10.0 mi SSW 23.0 mph - N/A   Clear
9:15 AM 33.8 °F 22.2 °F 17.6 °F 52% 29.90 in 10.0 mi SSW 20.7 mph 28.8 mph N/A   Clear
9:35 AM 35.6 °F 23.4 °F 17.6 °F 48% 29.89 in 10.0 mi SSW 25.3 mph - N/A   Clear
9:55 AM 37.4 °F 26.6 °F 17.6 °F 45% 29.90 in 10.0 mi SSW 21.9 mph 28.8 mph N/A   Clear
10:15 AM 39.2 °F 27.6 °F 17.6 °F 42% 29.90 in 10.0 mi SSW 28.8 mph - N/A   Clear
10:35 AM 41.0 °F 30.5 °F 17.6 °F 39% 29.90 in 10.0 mi SSW 26.5 mph 34.5 mph N/A   Clear
10:55 AM 41.0 °F 30.9 °F 17.6 °F 39% 29.90 in 10.0 mi SSW 24.2 mph 34.5 mph N/A   Clear
11:15 AM 42.8 °F 32.5 °F 17.6 °F 36% 29.89 in 10.0 mi SSW 28.8 mph 36.8 mph N/A   Clear
11:35 AM 44.6 °F 35.3 °F 17.6 °F 34% 29.88 in 10.0 mi SSW 26.5 mph 36.8 mph N/A   Clear
11:55 AM 44.6 °F 35.5 °F 17.6 °F 34% 29.87 in 10.0 mi SSW 25.3 mph 36.8 mph N/A   Clear
12:15 PM 48.2 °F - 15.8 °F 27% 29.86 in 10.0 mi SSW 29.9 mph 36.8 mph N/A   Clear
12:35 PM 48.2 °F - 15.8 °F 27% 29.87 in 10.0 mi SSW 26.5 mph 35.7 mph N/A   Clear
12:55 PM 48.2 °F - 15.8 °F 27% 29.85 in 10.0 mi SSW 29.9 mph 39.1 mph N/A   Clear
1:15 PM 48.2 °F - 15.8 °F 27% 29.85 in 10.0 mi SSW 29.9 mph 39.1 mph N/A   Clear
1:35 PM 48.2 °F - 15.8 °F 27% 29.85 in 10.0 mi SSW 31.1 mph - N/A   Clear
1:55 PM 48.2 °F - 15.8 °F 27% 29.84 in 10.0 mi SSW 31.1 mph 39.1 mph N/A   Clear
2:15 PM 50.0 °F - 15.8 °F 26% 29.84 in 10.0 mi SSW 25.3 mph 36.8 mph N/A   Clear
2:35 PM 50.0 °F - 15.8 °F 26% 29.84 in 10.0 mi SSW 25.3 mph 34.5 mph N/A   Clear
2:55 PM 50.0 °F - 15.8 °F 26% 29.84 in 10.0 mi SSW 26.5 mph 36.8 mph N/A   Clear
3:15 PM 50.0 °F - 15.8 °F 26% 29.84 in 10.0 mi SSW 24.2 mph 33.4 mph N/A   Clear
3:35 PM 50.0 °F - 15.8 °F 26% 29.85 in - SSW 26.5 mph 39.1 mph N/A   Clear
3:55 PM 48.2 °F - 15.8 °F 27% 29.85 in 10.0 mi SSW 26.5 mph 36.8 mph N/A   Clear
4:15 PM 48.2 °F - 15.8 °F 27% 29.85 in 10.0 mi SSW 26.5 mph 33.4 mph N/A   Clear
4:35 PM 46.4 °F 38.1 °F 14.0 °F 27% 29.86 in 10.0 mi SSW 24.2 mph 33.4 mph N/A   Clear
4:55 PM 44.6 °F 36.4 °F 14.0 °F 29% 29.86 in 10.0 mi SSW 20.7 mph 27.6 mph N/A   Clear
5:15 PM 44.6 °F 36.9 °F 14.0 °F 29% 29.86 in 10.0 mi SSW 18.4 mph 25.3 mph N/A   Clear
5:35 PM 42.8 °F 34.8 °F 14.0 °F 31% 29.87 in 10.0 mi SSW 17.3 mph - N/A   Clear
5:55 PM 41.0 °F 33.1 °F 14.0 °F 33% 29.88 in 10.0 mi South 15.0 mph - N/A   Clear
6:15 PM 39.2 °F 30.8 °F 14.0 °F 36% 29.88 in 10.0 mi South 15.0 mph - N/A   Clear
6:55 PM 37.4 °F 28.2 °F 14.0 °F 38% 29.88 in 10.0 mi South 16.1 mph - N/A   Clear
7:15 PM 37.4 °F 27.8 °F 15.8 °F 41% 29.89 in 10.0 mi South 17.3 mph - N/A   Clear
7:35 PM 37.4 °F 27.8 °F 15.8 °F 41% 29.90 in 10.0 mi South 17.3 mph - N/A   Clear
7:55 PM 37.4 °F 27.8 °F 15.8 °F 41% 29.90 in 10.0 mi South 17.3 mph - N/A   Clear
8:15 PM 37.4 °F 27.8 °F 15.8 °F 41% 29.90 in 10.0 mi South 17.3 mph 23.0 mph N/A   Clear
8:35 PM 37.4 °F 27.5 °F 15.8 °F 41% 29.91 in 10.0 mi South 18.4 mph - N/A   Clear
8:55 PM 37.4 °F 27.5 °F 15.8 °F 41% 29.91 in 10.0 mi South 18.4 mph 24.2 mph N/A   Clear
9:35 PM 37.4 °F 27.5 °F 15.8 °F 41% 29.92 in 10.0 mi South 18.4 mph - N/A   Clear
9:55 PM 37.4 °F 27.8 °F 15.8 °F 41% 29.92 in 10.0 mi South 17.3 mph - N/A   Clear
10:15 PM 35.6 °F 26.2 °F 15.8 °F 44% 29.92 in 10.0 mi South 15.0 mph 21.9 mph N/A   Clear
10:35 PM 35.6 °F 26.6 °F 15.8 °F 44% 29.92 in 10.0 mi South 13.8 mph 20.7 mph N/A   Clear
10:55 PM 35.6 °F 25.2 °F 14.0 °F 41% 29.92 in 10.0 mi South 18.4 mph - N/A   Clear
11:15 PM 35.6 °F 24.8 °F 14.0 °F 41% 29.92 in 10.0 mi South 19.6 mph 27.6 mph N/A   Clear
11:35 PM 35.6 °F 24.5 °F 14.0 °F 41% 29.91 in 10.0 mi South 20.7 mph - N/A   Clear
11:55 PM 35.6 °F 25.5 °F 14.0 °F 41% 29.92 in 10.0 mi South 17.3 mph 24.2 mph N/A   Clear